Wausau, WI

4:16 PM CST on December 11, 2017 (GMT -0600)
Wausau Downtown

Weather History for KAUW - January, 2014

Change the Weather History Date:

Saturday, January 18, 2014

  Actual Average Record
Temperature  
Mean Temperature 8 °F 14 °F  
Max Temperature 17 °F 23 °F 46 °F (1942)
Min Temperature -1 °F 6 °F -40 °F (1948)
Degree Days  
Heating Degree Days 57 51  
Month to date heating degree days 1027 912  
Since 1 July heating degree days 4500 4198  
Cooling Degree Days 0 0  
Month to date cooling degree days 0 0  
Year to date cooling degree days 0 0  
Moisture  
Dew Point 4 °F    
Average Humidity 81    
Maximum Humidity 95    
Minimum Humidity 67    
Precipitation  
Precipitation T in 0.03 in 1.48 in (1996)
Month to date precipitation 0.95 0.61  
Year to date precipitation 0.95 0.61  
Snow  
Snow T in 0.40 in 5.00 in (1945)
Month to date snowfall 14.2 7.8  
Since 1 July snowfall 42.9 30.0  
Snow Depth 19.00 in    
Sea Level Pressure  
Sea Level Pressure 29.83 in    
Wind  
Wind Speed 4 mph (ESE)    
Max Wind Speed 13 mph    
Max Gust Speed 15 mph    
Visibility 10 miles    
Events Snow    
T = Trace of Precipitation, MM = Missing Value Source: NWS Daily Summary

Daily Weather History Graph

Daily Weather History Graph

Search for Another Location

Airport or City:

Trip Planner

Search our weather history database for the weather conditions in past years. The results will help you decide how hot, cold, wet, or windy it might be!

Date:

Astronomy

Jan. 18, 2014 Rise Set
Actual Time 7:31 AM CST 4:47 PM CST
Civil Twilight 6:58 AM CST 5:19 PM CST
Nautical Twilight 6:22 AM CST 5:55 PM CST
Astronomical Twilight 5:47 AM CST 6:30 PM CST
Moon 7:38 PM CST (1/18) 8:22 AM CST (1/18)
Length of Visible Light 10h 21m
Length of Day
9h 16m
Waning Gibbous, 94% of the Moon is Illuminated
Jan 18
Waning Gibbous
Jan 23
Last Quarter
Jan 30
New
Feb 6
First Quarter
Feb 14
Full

Hourly Weather History & Observations

Time (CST) Temp. Windchill Dew Point Humidity Pressure Visibility Wind Dir Wind Speed Gust Speed Precip Events Conditions
12:54 AM 1.9 °F - -0.9 °F 88% 29.89 in 10.0 mi Calm Calm - N/A   Clear
1:54 AM 1.0 °F - -2.0 °F 87% 29.88 in 10.0 mi Calm Calm - N/A   Clear
2:33 AM -0.0 °F - -2.9 °F 88% 29.78 in 10.0 mi Calm Calm - N/A   Mostly Cloudy
2:54 AM -0.9 °F - -4.0 °F 87% 29.87 in 10.0 mi Calm Calm - N/A   Scattered Clouds
3:54 AM -0.0 °F -9.9 °F -2.9 °F 88% 29.84 in 10.0 mi East 4.6 mph - N/A   Scattered Clouds
4:54 AM 1.0 °F -8.7 °F -2.9 °F 83% 29.82 in 10.0 mi ESE 4.6 mph - N/A   Overcast
5:54 AM 1.9 °F -7.6 °F -0.9 °F 88% 29.82 in 10.0 mi ESE 4.6 mph - N/A   Overcast
6:52 AM 3.2 °F -6.2 °F -0.4 °F 85% 29.73 in 10.0 mi ESE 4.6 mph - N/A   Overcast
6:54 AM 3.9 °F -6.9 °F -0.0 °F 84% 29.82 in 10.0 mi East 5.8 mph - N/A   Overcast
7:34 AM 5.0 °F -6.9 °F 1.9 °F 87% 29.73 in 10.0 mi East 6.9 mph - N/A   Overcast
7:54 AM 6.1 °F -6.8 °F 3.0 °F 87% 29.82 in 7.0 mi East 8.1 mph - N/A   Overcast
8:40 AM 7.0 °F -4.5 °F 3.9 °F 87% 29.74 in 9.0 mi East 6.9 mph - N/A   Overcast
8:54 AM 7.0 °F -4.5 °F 5.0 °F 92% 29.84 in 10.0 mi East 6.9 mph - N/A   Overcast
9:54 AM 9.0 °F -4.2 °F 5.0 °F 84% 29.86 in 10.0 mi East 9.2 mph - N/A   Mostly Cloudy
10:26 AM 10.9 °F -1.8 °F 6.1 °F 81% 29.77 in 10.0 mi East 9.2 mph - N/A   Mostly Cloudy
10:54 AM 10.9 °F -1.8 °F 7.0 °F 84% 29.87 in 2.0 mi ESE 9.2 mph - 0.00 in Snow Light Snow
11:08 AM 10.9 °F -0.8 °F 7.0 °F 84% 29.78 in 4.0 mi East 8.1 mph - 0.00 in Snow Light Snow
11:54 AM 14.0 °F 5.1 °F 8.1 °F 77% 29.87 in 10.0 mi East 5.8 mph - 0.00 in   Unknown
12:11 PM 14.0 °F 6.5 °F 8.1 °F 77% 29.77 in 10.0 mi SSE 4.6 mph - N/A   Mostly Cloudy
12:18 PM 14.0 °F 3.9 °F 8.1 °F 77% 29.77 in 10.0 mi ESE 6.9 mph - N/A   Mostly Cloudy
12:36 PM 14.0 °F 8.2 °F 8.1 °F 77% 29.77 in 10.0 mi SE 3.5 mph - N/A   Scattered Clouds
12:54 PM 15.1 °F 9.4 °F 8.1 °F 74% 29.86 in 10.0 mi ESE 3.5 mph - N/A   Mostly Cloudy
1:54 PM 16.0 °F 8.8 °F 9.0 °F 74% 29.86 in 10.0 mi West 4.6 mph - N/A   Overcast
2:54 PM 17.1 °F 11.7 °F 9.0 °F 71% 29.87 in 10.0 mi NW 3.5 mph - N/A   Overcast
3:54 PM 16.0 °F - 9.0 °F 74% 29.88 in 10.0 mi Calm Calm - N/A   Clear
4:54 PM 14.0 °F 8.2 °F 8.1 °F 77% 29.89 in 10.0 mi WSW 3.5 mph - N/A   Clear
5:54 PM 12.0 °F 4.1 °F 7.0 °F 80% 29.91 in 10.0 mi WNW 4.6 mph - N/A   Clear
6:54 PM 8.1 °F - 3.9 °F 83% 29.90 in 10.0 mi Calm Calm - N/A   Clear
7:54 PM 10.0 °F - 6.1 °F 84% 29.88 in 10.0 mi Calm Calm - N/A   Clear
8:54 PM 10.9 °F - 6.1 °F 81% 29.85 in 10.0 mi Calm Calm - N/A   Clear
9:54 PM 12.0 °F 1.5 °F 6.1 °F 77% 29.81 in 10.0 mi SW 6.9 mph - N/A   Mostly Cloudy
10:54 PM 12.0 °F 2.7 °F 7.0 °F 80% 29.77 in 10.0 mi SW 5.8 mph - N/A   Overcast
11:54 PM 14.0 °F 2.0 °F 9.0 °F 80% 29.72 in 10.0 mi SW 9.2 mph - N/A   Overcast